{"data":{"norad_id":57069,"epoch":"2026-09-19T20:59:50.146944Z","epoch_age_seconds":174931,"freshness":"STALE","line1":"1 57069U 23088X   26262.87488596 -.00000013  00000+0  90363-5 0  9991","line2":"2 57069  43.0040  79.8817 0001301 259.9522 100.1183 15.27576504180026","mean_motion":15.27576504,"eccentricity":0.0001301,"inclination_deg":43.004,"raan_deg":79.8817,"arg_perigee_deg":259.9522,"mean_anomaly_deg":100.1183,"bstar":9.0363e-6,"rev_number":18002,"period_min":94.266964451818,"perigee_km":482.16692266828,"apogee_km":483.95220601432,"semimajor_km":6861.1965643413,"source":"CELESTRAK","updated_at":"2026-09-21T09:00:33.552344Z"}}